Voltar ao catálogo

FENGYUN 1C DEB *

AtivoPO
NORAD 47015·DEBRIS·🇨🇳 China

Lançado May 10, 1999 de Taiyuan Satellite Launch Center

Loading…

Próximas Passagens (próximas 24 horas)

TLE

AtualizadoSource: Space-Track

Época: Sep 12, 2026, 11:26 UTC

1 47015U 99025FAR 26255.47652690  .00003526  00000-0  28000-3 0  9990
2 47015  98.6843 344.2769 0162192 310.1257  48.5841 14.91496532684576

Acompanhe FENGYUN 1C DEB * em tempo real com AllMySat

Download on the App Store